This is the latest recevied weather packets stored in our database for station/object DL9GRB-13. If no packets are shown the sender has not sent any weather packets the latest 10 day(s).
| Time | Temp. | Humidity | Pressure | Rain* | Wind** | Luminosity | Snow |
|---|---|---|---|---|---|---|---|
| 1777621206 | 18.33° C | 52% | 1028.5 hPa | 0 mm | - | 403 W/m² | - |
| 1777621026 | 18.33° C | 51% | 1028.5 hPa | 0 mm | - | 398 W/m² | - |
| 1777620846 | 18.89° C | 50% | 1028.7 hPa | 0 mm | - | 392 W/m² | - |
| 1777620667 | 18.89° C | 50% | 1028.5 hPa | 0 mm | - | 387 W/m² | - |
| 1777620486 | 17.78° C | 53% | 1028.4 hPa | 0 mm | - | 382 W/m² | - |
| 1777620306 | 17.78° C | 52% | 1028.5 hPa | 0 mm | - | 375 W/m² | - |
| 1777620126 | 17.78° C | 52% | 1028.4 hPa | 0 mm | - | 369 W/m² | - |
| 1777619947 | 17.78° C | 52% | 1028.6 hPa | 0 mm | - | 363 W/m² | - |
| 1777619766 | 18.33° C | 52% | 1028.4 hPa | 0 mm | - | 355 W/m² | - |
| 1777619586 | 17.78° C | 53% | 1028.4 hPa | 0 mm | - | 350 W/m² | - |
| 1777619406 | 17.78° C | 54% | 1028.4 hPa | 0 mm | - | 341 W/m² | - |
| 1777619226 | 17.22° C | 54% | 1028.4 hPa | 0 mm | - | 334 W/m² | - |
| 1777619046 | 17.22° C | 55% | 1028.7 hPa | 0 mm | - | 326 W/m² | - |
| 1777618866 | 16.67° C | 56% | 1028.6 hPa | 0 mm | - | 319 W/m² | - |
| 1777618686 | 16.67° C | 56% | 1028.5 hPa | 0 mm | - | 312 W/m² | - |
| 1777618506 | 16.67° C | 57% | 1028.5 hPa | 0 mm | - | 304 W/m² | - |
| 1777618326 | 16.67° C | 56% | 1028.5 hPa | 0 mm | - | 297 W/m² | - |
| 1777618146 | 16.11° C | 59% | 1028.5 hPa | 0 mm | - | 288 W/m² | - |
| 1777617966 | 15.56° C | 58% | 1028.6 hPa | 0 mm | - | 278 W/m² | - |
| 1777617786 | 15.56° C | 58% | 1028.6 hPa | 0 mm | - | 268 W/m² | - |
| 1777617606 | 15.56° C | 60% | 1028.6 hPa | 0 mm | - | 259 W/m² | - |
| 1777617426 | 15.56° C | 59% | 1028.8 hPa | 0 mm | - | 250 W/m² | - |
| 1777617246 | 15° C | 59% | 1028.8 hPa | 0 mm | - | 240 W/m² | - |
| 1777617066 | 15° C | 61% | 1028.5 hPa | 0 mm | - | 229 W/m² | - |
| 1777616886 | 15° C | 60% | 1028.6 hPa | 0 mm | - | 217 W/m² | - |
* Rain latest hour (hover to see other rain measurements)
** Current wind speed in m/s (hover to see current wind gust speed)